TimeCDT,TemperatureF,Dew PointF,Humidity,Sea Level PressureIn,VisibilityMPH,Wind Direction,Wind SpeedMPH,Gust SpeedMPH,PrecipitationIn,Events,Conditions,WindDirDegrees,DateUTC
12:58 AM,48.0,48.0,100,30.00,10.0,Calm,Calm,-,N/A,,Clear,0,2012-10-21 05:58:00
1:58 AM,46.9,46.0,97,30.01,10.0,Calm,Calm,-,N/A,,Clear,0,2012-10-21 06:58:00
2:58 AM,46.9,46.0,97,30.02,10.0,Calm,Calm,-,N/A,,Clear,0,2012-10-21 07:58:00
3:58 AM,46.0,45.0,96,30.03,10.0,Calm,Calm,-,N/A,,Clear,0,2012-10-21 08:58:00
4:58 AM,45.0,44.1,97,30.05,10.0,Calm,Calm,-,N/A,,Clear,0,2012-10-21 09:58:00
5:58 AM,45.0,44.1,97,30.08,10.0,Calm,Calm,-,N/A,,Clear,0,2012-10-21 10:58:00
6:58 AM,44.1,43.0,96,30.09,10.0,Calm,Calm,-,N/A,,Clear,0,2012-10-21 11:58:00
7:58 AM,46.9,46.0,97,30.10,10.0,Calm,Calm,-,N/A,,Clear,0,2012-10-21 12:58:00
8:58 AM,55.0,51.1,86,30.12,10.0,Calm,Calm,-,N/A,,Clear,0,2012-10-21 13:58:00
9:58 AM,64.0,51.1,63,30.13,10.0,Calm,Calm,-,N/A,,Clear,0,2012-10-21 14:58:00
10:58 AM,71.1,48.0,44,30.13,10.0,South,4.6,-,N/A,,Clear,170,2012-10-21 15:58:00
11:58 AM,75.0,50.0,41,30.12,10.0,SSE,5.8,-,N/A,,Clear,160,2012-10-21 16:58:00
12:58 PM,77.0,48.0,36,30.10,10.0,SSW,4.6,-,N/A,,Clear,200,2012-10-21 17:58:00
1:58 PM,77.0,48.9,37,30.08,10.0,South,5.8,-,N/A,,Clear,190,2012-10-21 18:58:00
2:58 PM,79.0,51.1,38,30.06,10.0,SSE,8.1,-,N/A,,Clear,160,2012-10-21 19:58:00
3:58 PM,78.1,50.0,37,30.07,10.0,Calm,Calm,-,N/A,,Clear,0,2012-10-21 20:58:00
4:58 PM,77.0,50.0,39,30.07,10.0,SSE,5.8,-,N/A,,Clear,150,2012-10-21 21:58:00
5:58 PM,73.9,54.0,50,30.07,10.0,SE,3.5,-,N/A,,Clear,140,2012-10-21 22:58:00
6:58 PM,63.0,57.9,84,30.08,10.0,Calm,Calm,-,0.01,,Clear,0,2012-10-21 23:58:00
7:58 PM,59.0,57.0,93,30.09,10.0,Calm,Calm,-,N/A,,Clear,0,2012-10-22 00:58:00
8:58 PM,57.0,55.0,93,30.10,10.0,Calm,Calm,-,N/A,,Clear,0,2012-10-22 01:58:00
9:58 PM,55.0,54.0,96,30.10,10.0,Calm,Calm,-,N/A,,Clear,0,2012-10-22 02:58:00
10:58 PM,54.0,52.0,93,30.11,10.0,Calm,Calm,-,N/A,,Clear,0,2012-10-22 03:58:00
11:58 PM,53.1,52.0,96,30.10,10.0,Calm,Calm,-,N/A,,Clear,0,2012-10-22 04:58:00